Weather History for Christmas Island, IS

Change the Weather History Date:

Tuesday, January 22, 2013

  Actual Average Record
Temperature  
Mean Temperature 80 °F -  
Max Temperature 84 °F 79 °F 84 °F (2003)
Min Temperature 75 °F 71 °F 69 °F (2008)
Cooling Degree Days 14    
Growing Degree Days 30 (Base 50)    
Moisture  
Dew Point 76 °F    
Average Humidity 91    
Maximum Humidity 100    
Minimum Humidity 73    
Precipitation  
Precipitation 0.16 in - - ()
Sea Level Pressure  
Sea Level Pressure 29.86 in    
Wind  
Wind Speed 6 mph ()    
Max Wind Speed 8 mph    
Max Gust Speed -    
Visibility 5.8 miles    
Events Rain    
Averages and records for this station are not official NWS values.
T = Trace of Precipitation, MM = Missing Value Source: Averaged Metar Reports

Daily Weather History Graph

Daily Weather History Graph

Search for Another Location

Airport:

Trip Planner

Search our weather history database for the weather conditions in past years. The results will help you decide how hot, cold, wet, or windy it might be!

Date:

Astronomy

Jan. 22, 2013 Rise Set
Actual Time 5:50 AM CXT 6:27 PM CXT
Civil Twilight 5:27 AM CXT 6:49 PM CXT
Nautical Twilight 5:01 AM CXT 7:16 PM CXT
Astronomical Twilight 4:34 AM CXT 7:42 PM CXT
Moon 2:34 PM CXT (1/22) 1:37 AM CXT (1/22)
Length of Visible Light 13h 22m
Length of Day
12h 37m
Waxing Gibbous, 79% of the Moon is Illuminated
Jan 22
Waxing Gibbous
Jan 27
Full
Feb 3
Last Quarter
Feb 10
New
Feb 18
First Quarter

Hourly Weather History & Observations

Time (CXT) Temp. Heat Index Dew Point Humidity Pressure Visibility Wind Dir Wind Speed Gust Speed Precip Events Conditions
12:00 AM 78 °F - 76 °F 91% 29.86 in 5 mi WNW 6.9 mph - -   Overcast
12:00 AM 77.0 °F - 75.2 °F 94% 29.89 in 5.0 mi WNW 6.9 mph - N/A Rain Heavy Rain Showers
12:08 AM 77.0 °F - 75.2 °F 94% 29.89 in 6.2 mi WNW 5.8 mph - N/A Rain Rain Showers
12:31 AM 77.0 °F - 75.2 °F 94% 29.89 in - West 4.6 mph - N/A   Mostly Cloudy
1:00 AM 77 °F - 75 °F 93% 29.84 in - WNW 5.8 mph - -  
1:00 AM 77.0 °F - 75.2 °F 94% 29.89 in - WNW 5.8 mph - N/A   Overcast
2:00 AM 77.0 °F - 75.2 °F 94% 29.86 in 6.2 mi West 5.8 mph - N/A   Mostly Cloudy
2:04 AM 77.0 °F - 75.2 °F 94% 29.86 in - West 5.8 mph - N/A   Mostly Cloudy
3:00 AM 76 °F - 75 °F 95% 29.82 in - West 5.8 mph - -  
3:00 AM 77.0 °F - 75.2 °F 94% 29.86 in 6.2 mi West 5.8 mph - N/A   Scattered Clouds
4:00 AM 76 °F - 75 °F 97% 29.81 in - WNW 5.8 mph - -  
4:00 AM 77.0 °F - 75.2 °F 94% 29.83 in 6.2 mi WNW 5.8 mph - N/A   Scattered Clouds
4:53 AM 77.0 °F - 75.2 °F 94% 29.86 in 6.2 mi West 2.3 mph - N/A   Mostly Cloudy
5:00 AM 77.0 °F - 75.2 °F 94% 29.86 in 6.2 mi West 3.5 mph - N/A   Mostly Cloudy
6:00 AM 77 °F - 75 °F 92% 29.84 in - WNW 3.5 mph - -   Overcast
6:00 AM 77.0 °F - 75.2 °F 94% 29.86 in 6.2 mi WNW 3.5 mph - N/A   Overcast
6:25 AM 77.0 °F - 75.2 °F 94% 29.89 in 6.2 mi West 3.5 mph - N/A   Scattered Clouds
7:00 AM 78 °F - 75 °F 88% 29.86 in - WNW 4.6 mph - -  
7:00 AM 77.0 °F - 75.2 °F 94% 29.89 in 6.2 mi WNW 4.6 mph - N/A   Scattered Clouds
8:00 AM 80.6 °F 86.2 °F 75.2 °F 84% 29.92 in 6.2 mi WNW 5.8 mph - N/A   Scattered Clouds
9:00 AM 79 °F - 76 °F 86% 29.88 in - WNW 8.1 mph - -   Overcast
9:00 AM 78.8 °F - 75.2 °F 89% 29.92 in 6.2 mi WNW 8.1 mph - N/A   Mostly Cloudy
10:00 AM 80 °F - 75 °F 81% 29.87 in - WNW 6.9 mph - -  
10:00 AM 80.6 °F 86.2 °F 75.2 °F 84% 29.89 in 6.2 mi WNW 6.9 mph - N/A   Overcast
10:01 AM 80.6 °F 86.2 °F 75.2 °F 84% 29.89 in 6.2 mi WNW 6.9 mph - N/A   Overcast
10:02 AM 80.6 °F 86.2 °F 75.2 °F 84% 29.89 in 6.2 mi WNW 6.9 mph - N/A   Overcast
10:22 AM 78.8 °F - 75.2 °F 89% 29.89 in - WNW 5.8 mph - N/A   Drizzle
11:00 AM 80.6 °F 86.2 °F 75.2 °F 84% 29.89 in - WNW 4.6 mph - N/A Rain Light Rain Showers
11:34 AM 78.8 °F - 75.2 °F 89% 29.89 in 6.2 mi NW 8.1 mph - N/A   Overcast
12:00 PM 81 °F - 75 °F 78% 29.83 in - NW 8.1 mph - -   Overcast
12:00 PM 80.6 °F 86.2 °F 75.2 °F 84% 29.86 in 6.2 mi NW 8.1 mph - N/A   Overcast
1:00 PM 82 °F - 75 °F 73% 29.83 in - NW 6.9 mph - -  
1:00 PM 82.4 °F 89.5 °F 75.2 °F 79% 29.86 in 6.2 mi NW 6.9 mph - N/A   Mostly Cloudy
2:00 PM 82.4 °F 89.5 °F 75.2 °F 79% 29.83 in 6.2 mi NW 8.1 mph - N/A   Mostly Cloudy
2:42 PM 78.8 °F - 77.0 °F 94% 29.83 in 3.7 mi WNW 8.1 mph - N/A Rain Rain Showers
3:00 PM 79 °F - 78 °F 97% 29.79 in 4 mi West 8.1 mph - -   Overcast
3:00 PM 78.8 °F - 78.8 °F 100% 29.83 in 3.7 mi West 8.1 mph - N/A Rain Heavy Rain Showers
3:21 PM 78.8 °F - 77.0 °F 94% 29.83 in 6.2 mi West 8.1 mph - N/A Rain Light Rain Showers
3:26 PM 80.6 °F 87.1 °F 77.0 °F 89% 29.83 in 6.2 mi West 6.9 mph - N/A Rain Light Rain Showers
3:44 PM 78.8 °F - 75.2 °F 89% 29.83 in 6.2 mi West 6.9 mph - N/A   Overcast
4:00 PM 79 °F - 76 °F 87% 29.79 in - West 8.1 mph - -  
4:00 PM 78.8 °F - 75.2 °F 89% 29.83 in 6.2 mi West 8.1 mph - N/A   Overcast
4:34 PM 78.8 °F - 77.0 °F 94% 29.83 in 6.2 mi West 5.8 mph - N/A   Mostly Cloudy
5:00 PM 78.8 °F - 77.0 °F 94% 29.83 in 6.2 mi West 4.6 mph - N/A Rain Light Rain Showers
5:26 PM 78.8 °F - 77.0 °F 94% 29.83 in 6.2 mi WSW 4.6 mph - N/A Rain Light Rain Showers
6:00 PM 78 °F - 77 °F 94% 29.80 in - West 3.5 mph - -  
6:00 PM 78.8 °F - 77.0 °F 94% 29.83 in 6.2 mi West 3.5 mph - N/A   Mostly Cloudy
6:58 PM 77.0 °F - 73.4 °F 89% 29.86 in 3.7 mi NW 8.1 mph - N/A Rain Light Rain Showers
7:00 PM 76 °F - 74 °F 92% 29.83 in - NW 8.1 mph - -  
7:00 PM 77.0 °F - 73.4 °F 89% 29.86 in 3.7 mi NW 8.1 mph - N/A Rain Rain Showers
7:18 PM 77.0 °F - 73.4 °F 89% 29.86 in 6.2 mi WNW 6.9 mph - N/A Rain Light Rain Showers
7:35 PM 77.0 °F - 73.4 °F 89% 29.86 in 6.2 mi WNW 6.9 mph - N/A Rain Light Rain Showers
7:53 PM 77.0 °F - 73.4 °F 89% 29.89 in 6.2 mi WNW 5.8 mph - N/A   Mostly Cloudy
8:00 PM 77.0 °F - 75.2 °F 94% 29.89 in 6.2 mi WNW 5.8 mph - N/A   Scattered Clouds
9:00 PM 77 °F - 76 °F 96% 29.86 in - WNW 5.8 mph - -   Overcast
9:00 PM 77.0 °F - 77.0 °F 100% 29.89 in 6.2 mi WNW 5.8 mph - N/A   Overcast
10:00 PM 77 °F - 76 °F 98% 29.86 in - WNW 4.6 mph - -  
10:00 PM 77.0 °F - 77.0 °F 100% 29.89 in 6.2 mi WNW 4.6 mph - N/A   Mostly Cloudy
11:00 PM 77.0 °F - 77.0 °F 100% 29.89 in 6.2 mi West 3.5 mph - N/A   Scattered Clouds